CW4845 Weather Reports


time (UTC)temp
C
wind
direction
speed
KPH
gust
KPH
rain 1hr
cm
rain 24hr
cm
rain mn
cm
humidity
%
barometer
mb
20260504043958 12 232 19.3 27.4 0.00 0.00 0.00 53 1013.1
20260504043953 12 238 19.3 27.4 0.00 0.00 0.00 54 1012.9
20260504042931 12 219 19.3 27.4 0.00 0.00 0.00 53 1012.9
20260504042429 12 253 20.9 29.0 0.00 0.00 0.00 53 1012.9
20260504042152 12 230 20.9 29.0 0.00 0.00 0.00 53 1012.9
20260504041429 12 236 19.3 27.4 0.00 0.00 0.00 54 1012.9
20260504040929 12 236 17.7 27.4 0.00 0.00 0.00 53 1012.8
20260504040859 12 214 17.7 25.7 0.00 0.00 0.00 53 1012.8
20260504035919 12 230 17.7 27.4 0.00 0.00 0.00 53 1012.8
20260504035418 12 238 17.7 27.4 0.00 0.00 0.00 53 1012.7
20260504034919 12 235 17.7 25.7 0.00 0.00 0.00 53 1012.7
20260504034628 12 225 17.7 25.7 0.00 0.00 0.00 53 1012.7
20260504033908 12 214 17.7 25.7 0.00 0.00 0.00 52 1012.7
20260504033355 12 229 19.3 29.0 0.00 0.00 0.00 51 1012.7
20260504032852 12 229 19.3 29.0 0.00 0.00 0.00 52 1012.7
20260504032354 12 226 19.3 27.4 0.00 0.00 0.00 52 1012.7
20260504031851 12 206 17.7 27.4 0.00 0.00 0.00 51 1012.7
20260504031352 12 217 17.7 25.7 0.00 0.00 0.00 52 1012.7
20260504030837 12 224 17.7 25.7 0.00 0.00 0.00 52 1012.6
20260504030336 12 224 16.1 25.7 0.00 0.00 0.00 52 1012.6
20260504025837 12 232 16.1 24.1 0.00 0.00 0.00 52 1012.6
20260504025307 12 225 16.1 20.9 0.00 0.00 0.00 52 1012.7
20260504024804 12 239 16.1 22.5 0.00 0.00 0.00 52 1012.7
20260504024306 12 241 16.1 24.1 0.00 0.00 0.00 51 1012.7
20260504023750 12 217 16.1 24.1 0.00 0.00 0.00 50 1012.7
20260504023225 12 237 17.7 25.7 0.00 0.00 0.00 50 1012.7
20260504022721 12 233 19.3 25.7 0.00 0.00 0.00 49 1012.7
20260504022218 12 229 16.1 24.1 0.00 0.00 0.00 49 1012.6
20260504021708 12 235 16.1 24.1 0.00 0.00 0.00 50 1012.6
20260504021145 13 231 16.1 22.5 0.00 0.00 0.00 51 1012.6
20260504020647 13 226 14.5 20.9 0.00 0.00 0.00 52 1012.6
20260504020127 13 236 16.1 22.5 0.00 0.00 0.00 51 1012.6
20260504015850 13 235 17.7 22.5 0.00 0.00 0.00 50 1012.6
20260504015106 13 248 16.1 22.5 0.00 0.00 0.00 50 1012.5
20260504014603 13 234 16.1 22.5 0.00 0.00 0.00 50 1012.5
20260504014058 13 220 16.1 22.5 0.00 0.00 0.00 50 1012.5
20260504013539 13 217 16.1 22.5 0.00 0.00 0.00 49 1012.3
20260504013042 13 230 16.1 22.5 0.00 0.00 0.00 49 1012.3
20260504012514 13 239 16.1 22.5 0.00 0.00 0.00 47 1012.3
20260504012012 13 219 16.1 22.5 0.00 0.00 0.00 48 1012.1
20260504011924 13 235 14.5 22.5 0.00 0.00 0.00 48 1012.1
20260504010940 13 226 14.5 20.9 0.00 0.00 0.00 49 1011.8
20260504010440 13 244 12.9 20.9 0.00 0.00 0.00 48 1011.8
20260504005914 13 215 12.9 19.3 0.00 0.00 0.00 49 1011.8
20260504005414 13 219 12.9 19.3 0.00 0.00 0.00 48 1011.8
20260504004852 13 228 11.3 19.3 0.00 0.00 0.00 48 1011.8
20260504004611 13 204 11.3 17.7 0.00 0.00 0.00 48 1011.8
20260504003848 14 218 12.9 19.3 0.00 0.00 0.00 47 1011.6
20260504003350 14 211 12.9 19.3 0.00 0.00 0.00 46 1011.6
20260504002838 14 230 14.5 19.3 0.00 0.00 0.00 45 1011.6
20260504002605 14 253 14.5 19.3 0.00 0.00 0.00 44 1011.3
20260504001836 14 242 12.9 19.3 0.00 0.00 0.00 44 1011.3
20260504001600 14 222 11.3 17.7 0.00 0.00 0.00 44 1011.3
20260504001049 14 222 11.3 17.7 0.00 0.00 0.00 42 1011.2
20260504000333 15 239 9.7 16.1 0.00 0.00 0.00 41 1011.2
20260503235814 15 226 9.7 16.1 0.00 0.00 0.00 44 1011.2
20260503235312 15 251 8.0 16.1 0.00 0.00 0.00 44 1011.2
20260503235036 15 250 9.7 16.1 0.00 0.00 0.00 42 1011.2
20260503234257 15 251 9.7 16.1 0.00 0.00 0.00 40 1011.2
20260503233754 15 242 9.7 16.1 0.00 0.00 0.00 38 1010.9
20260503233254 15 236 11.3 20.9 0.00 0.00 0.00 38 1010.9
20260503233003 15 290 11.3 20.9 0.00 0.00 0.00 37 1010.9
20260503232242 15 298 12.9 22.5 0.00 0.00 0.00 35 1011.0
20260503231727 15 270 12.9 24.1 0.00 0.00 0.00 35 1011.0
20260503231219 15 285 14.5 25.7 0.00 0.00 0.00 35 1011.0
20260503230713 15 295 17.7 25.7 0.00 0.00 0.00 34 1010.9
20260503230214 15 219 17.7 25.7 0.00 0.00 0.00 34 1010.9
20260503230123 15 289 20.9 33.8 0.00 0.00 0.00 33 1010.9
20260503225141 15 257 20.9 33.8 0.00 0.00 0.00 35 1010.7
20260503224642 15 265 17.7 27.4 0.00 0.00 0.00 34 1010.7
20260503224113 16 258 17.7 29.0 0.00 0.00 0.00 35 1010.7
20260503223610 16 292 20.9 33.8 0.00 0.00 0.00 34 1010.7
20260503223111 16 293 22.5 33.8 0.00 0.00 0.00 35 1010.7
20260503222550 16 302 22.5 32.2 0.00 0.00 0.00 34 1010.7
20260503222049 16 296 20.9 32.2 0.00 0.00 0.00 33 1010.7
20260503221815 16 298 25.7 41.8 0.00 0.00 0.00 35 1010.7
20260503221032 16 330 27.4 43.5 0.00 0.00 0.00 34 1010.7
20260503220527 16 246 24.1 43.5 0.00 0.00 0.00 33 1010.6
20260503220028 16 261 22.5 37.0 0.00 0.00 0.00 33 1010.6
20260503215506 16 252 24.1 37.0 0.00 0.00 0.00 33 1010.6
20260503215006 16 303 24.1 40.2 0.00 0.00 0.00 33 1010.5
20260503214705 16 286 24.1 40.2 0.00 0.00 0.00 33 1010.5
20260503213948 16 284 24.1 35.4 0.00 0.00 0.00 34 1010.5
20260503213447 16 299 24.1 33.8 0.00 0.00 0.00 32 1010.5
20260503212945 16 301 24.1 33.8 0.00 0.00 0.00 34 1010.5
20260503212441 16 280 22.5 38.6 0.00 0.00 0.00 34 1010.6
20260503211940 16 285 25.7 38.6 0.00 0.00 0.00 35 1010.6
20260503211437 16 315 25.7 38.6 0.00 0.00 0.00 34 1010.6
20260503210914 16 291 25.7 45.1 0.00 0.00 0.00 36 1010.5
20260503210417 16 269 24.1 45.1 0.00 0.00 0.00 35 1010.5
20260503205851 16 284 24.1 38.6 0.00 0.00 0.00 32 1010.5
20260503205323 16 297 29.0 41.8 0.00 0.00 0.00 32 1010.4
20260503205049 16 270 25.7 41.8 0.00 0.00 0.00 34 1010.4
20260503204253 16 301 25.7 41.8 0.00 0.00 0.00 32 1010.4
20260503203750 16 253 24.1 45.1 0.00 0.00 0.00 33 1010.3
20260503203704 16 323 22.5 45.1 0.00 0.00 0.00 33 1010.3
20260503202723 16 270 24.1 35.4 0.00 0.00 0.00 33 1010.3
20260503202215 16 279 22.5 35.4 0.00 0.00 0.00 34 1010.3
20260503201711 16 257 24.1 38.6 0.00 0.00 0.00 34 1010.3
20260503201434 16 301 24.1 38.6 0.00 0.00 0.00 34 1010.3
20260503201159 15 256 22.5 37.0 0.00 0.00 0.00 35 1010.6
20260503200155 15 258 24.1 37.0 0.00 0.00 0.00 34 1010.6
20260503195858 15 280 24.1 37.0 0.00 0.00 0.00 34 1010.6
20260503195112 16 266 25.7 40.2 0.00 0.00 0.00 37 1010.7
20260503194551 16 257 27.4 40.2 0.00 0.00 0.00 34 1010.7
20260503194052 16 280 25.7 38.6 0.00 0.00 0.00 37 1010.7
20260503193553 15 281 27.4 38.6 0.00 0.00 0.00 37 1010.7
20260503193050 15 319 24.1 38.6 0.00 0.00 0.00 36 1010.7
20260503192531 15 290 25.7 37.0 0.00 0.00 0.00 36 1010.7
20260503192019 15 289 27.4 38.6 0.00 0.00 0.00 35 1010.9
20260503191518 15 269 24.1 38.6 0.00 0.00 0.00 37 1010.9
20260503191008 15 320 24.1 37.0 0.00 0.00 0.00 37 1011.1
20260503190440 15 307 22.5 37.0 0.00 0.00 0.00 39 1011.1
20260503185938 15 299 22.5 33.8 0.00 0.00 0.00 38 1011.1
20260503185439 15 282 24.1 33.8 0.00 0.00 0.00 36 1011.1
20260503185359 15 280 24.1 43.5 0.00 0.00 0.00 38 1011.1
20260503184415 15 284 24.1 43.5 0.00 0.00 0.00 39 1011.1
20260503183917 15 314 25.7 40.2 0.00 0.00 0.00 38 1011.2
20260503183405 15 298 29.0 43.5 0.00 0.00 0.00 37 1011.2
20260503182900 14 313 27.4 45.1 0.00 0.00 0.00 38 1011.2
20260503182402 14 305 24.1 45.1 0.00 0.00 0.00 38 1011.2
20260503181900 14 260 24.1 41.8 0.00 0.00 0.00 37 1011.2
20260503181400 14 288 25.7 41.8 0.00 0.00 0.00 37 1011.2
20260503180841 15 306 24.1 38.6 0.00 0.00 0.00 37 1011.2
20260503180338 15 305 27.4 38.6 0.00 0.00 0.00 39 1011.2
20260503175839 14 308 29.0 38.6 0.00 0.00 0.00 37 1011.2
20260503175317 14 305 22.5 38.6 0.00 0.00 0.00 38 1011.3
20260503174751 13 307 22.5 40.2 0.00 0.00 0.00 41 1011.3
20260503174243 13 280 27.4 40.2 0.00 0.00 0.00 40 1011.3
20260503173743 13 303 29.0 40.2 0.00 0.00 0.00 43 1011.2
20260503173226 13 288 27.4 38.6 0.00 0.00 0.00 42 1011.2
20260503172705 13 326 24.1 37.0 0.00 0.00 0.00 41 1011.2
20260503172202 13 279 24.1 37.0 0.00 0.00 0.00 41 1011.2
20260503171634 13 305 24.1 38.6 0.00 0.00 0.00 41 1011.2
20260503171133 13 279 24.1 38.6 0.00 0.00 0.00 41 1011.2
20260503170636 13 309 22.5 35.4 0.00 0.00 0.00 40 1011.2
20260503170122 13 302 24.1 38.6 0.00 0.00 0.00 39 1011.2
20260503150711 13 294 19.3 30.6 0.00 0.00 0.00 44 1011.7
20260503150212 13 290 19.3 30.6 0.00 0.00 0.00 46 1011.7
20260503131340 10 315 24.1 41.8 0.00 0.00 0.00 57 1011.3
20260503131041 10 328 24.1 41.8 0.00 0.00 0.00 57 1011.2
20260503130300 10 336 27.4 43.5 0.00 0.00 0.00 56 1011.2
20260503110826 9 309 22.5 33.8 0.00 0.00 0.00 59 1010.2
20260503110323 9 312 20.9 32.2 0.00 0.00 0.00 60 1010.2
20260503100231 9 298 17.7 22.5 0.00 0.00 0.00 54 1009.1
20260503081331 10 304 11.3 20.9 0.00 0.00 0.00 57 1008.5
20260503081054 10 319 12.9 20.9 0.00 0.00 0.00 57 1008.6
20260503080328 10 318 11.3 20.9 0.00 0.00 0.00 57 1008.6
20260503072658 11 344 12.9 24.1 0.00 0.00 0.00 54 1008.6
20260503072133 11 319 12.9 22.5 0.00 0.00 0.00 54 1008.6
20260503071635 11 291 12.9 20.9 0.00 0.00 0.00 54 1008.6
20260503071112 11 333 14.5 22.5 0.00 0.00 0.00 53 1008.6
20260503070548 11 328 12.9 22.5 0.00 0.00 0.00 53 1008.6
20260503054928 12 348 17.7 25.7 0.00 0.00 0.00 53 1008.8
20260503054421 12 315 17.7 25.7 0.00 0.00 0.00 53 1008.8
20260503053921 12 313 16.1 25.7 0.00 0.00 0.00 54 1008.8
20260503053411 12 300 14.5 24.1 0.00 0.00 0.00 54 1008.8
20260503052908 12 328 16.1 25.7 0.00 0.00 0.00 54 1008.8
20260503052406 12 282 14.5 25.7 0.00 0.00 0.00 54 1008.8
20260503052124 12 346 16.1 25.7 0.00 0.00 0.00 55 1008.8
20260503051403 12 296 16.1 25.7 0.00 0.00 0.00 55 1008.8
20260503051128 12 302 12.9 24.1 0.00 0.00 0.00 56 1009.1
20260503050403 12 336 12.9 22.5 0.00 0.00 0.00 56 1009.1
20260503045901 12 335 14.5 24.1 0.00 0.00 0.00 56 1009.1
20260503045401 12 298 14.5 22.5 0.00 0.00 0.00 56 1009.2
20260503045125 12 301 14.5 22.5 0.00 0.00 0.00 56 1009.2
20260503044349 12 319 16.1 24.1 0.00 0.00 0.00 56 1009.2